BREEZE-M DEB

Satellite information

Favourite Embed

Satellite Type and Status

DEBRISIN ORBIT

Key statistics

Satellite BREEZE-M DEB at a glance.

Uptime

6385

Days in orbit

Revolutions

≈ 3.3

Per day

Orbit

MEO

Medium Earth Orbit

Inclination

49.9

Latest

Satellite identification and parameters

Extended collection of information and parameters for BREEZE-M DEB.

Object identification

Identified? True

Debris? True

Object name: BREEZE-M DEB

International designator: 2008-011CS

Object number (NORAD): 38643

Object ID (CCSDS): 38643

Country: COMMONWEALTH OF INDEPENDENT STATES (CIS)

Current information (Y/N): Y

RCS size: MEDIUM

Orbital parameters

Period: 430.856 minutes

Inclination: 49.9175 deg

SMA: 18896.509 km

Apoapsis: 24622.152 km

Periapsis: 414.596 km

RAAN: 11.6032 deg

Eccentricy: 0.64052986

Argument of periapsis: 162.2234 deg

Mean anomaly: 358.2813 deg

Mean motion: 3.34218437 rev/day

Mean motion (dot): 0.0007724 rev/day2

B* drag term: 0.12236776 1/REarth

Two-line elements (TLE)

Creation date: Sept. 6, 2025, 2:09 a.m.

Reference frame: TEME

Reference center: EARTH

Epoch: Sept. 5, 2025, 5:48 p.m. UTC

TLE line 0: 0 BREEZE-M DEB

TLE line 1: 1 38643U 08011CS 25248.74177902 .00077240 00000-0 12237+0 0 9996

TLE line 2: 2 38643 49.9175 11.6032 6405299 162.2234 358.2813 3.34218437 21737

Live tracking on map

Real-time ground track for satellite BREEZE-M DEB.

In-orbit conjunctions

A list of the most updated potential collisions computed for object BREEZE-M DEB.

Target Orbit TCA Probability of collision Miss distance Type
ARIANE 5 R/B GTO 2025-02-22 13:34:29 TBA 3547.0 (m) ROCKET BODY

Associated space launch

American communications satellite scheduled to operate in GEO, but was left stranded in a too low transfer orbit due to a launch vehicle failure. It was sold to the US Department of Defense and operated from geosynchronous orbit.

BREEZE-M DEB was lifted into orbit during the mission ‘Proton-M Briz-M | AMC 14’, on board a Proton-M Briz-M space rocket.

The launch took place on March 14, 2008, 11:18 p.m. from 200/39 (200L).

For more information about the launch, click the button.

Launch to space Proton-M Briz-M | AMC 14
Proton-M Briz-M | AMC 14

Agency: N/A

Status: Launch Failure

Launch date: March 14, 2008, 11:18 p.m. UTC

Rocket: Proton-M Briz-M

Launch pad: 200/39 (200L)

Location: Baikonur Cosmodrome, Republic of Kazakhstan

...

Latest news about this satellite

There are no fresh news available about this satellite. Check back as we update our databases every day.


Newsletter sign-up

Weekly statistics, charts and insights to help you stay on top of the space industry.